Simultaneous Nadir Overpasses (SNOs) Predictions

Prediction of SNOs between METOP-A and NOAA-19 Satellite Orbit:

Table of predicted SNOs for the next 14.0 days since TLE Epoch: 10/14/2016
Index Date (METOP-A) Time (METOP-A) Lat,Lon (METOP-A) SZA (METOP-A ) Date (NOAA-19) Time (NOAA-19) Lat,Lon (NOAA-19) SZA (NOAA-19 ) Distance(km) Time Diff (sec)
1 10/15/2016 20:13:09 76.53,-121.44 85.42 10/15/2016 20:12:01 76.52,-121.52 85.41 2.29 68
2 10/15/2016 21:03:51 -76.49, 45.75 94.61 10/15/2016 21:02:59 -76.51, 45.80 94.60 2.20 52
3 10/15/2016 21:54:31 76.51,-146.85 85.43 10/15/2016 21:54:02 76.48,-146.87 85.40 3.04 29
4 10/15/2016 22:45:13 -76.47, 20.34 94.61 10/15/2016 22:45:00 -76.47, 20.45 94.61 2.74 13
5 10/15/2016 23:35:53 76.49,-172.25 85.43 10/15/2016 23:36:04 76.49,-172.39 85.43 3.66 11
6 10/16/2016 00:26:35 -76.45, -5.06 94.60 10/16/2016 00:27:02 -76.47, -5.08 94.58 2.15 27
7 10/16/2016 01:17:16 76.43, 162.17 85.39 10/16/2016 01:18:05 76.45, 162.25 85.42 3.15 49
8 10/16/2016 02:07:57 -76.44, -30.47 94.59 10/16/2016 02:09:03 -76.44, -30.43 94.59 1.04 66
9 10/26/2016 12:08:53 -77.05,-178.37 90.23 10/26/2016 12:07:48 -77.01, 177.80 90.36 95.78 65
10 10/26/2016 12:59:44 76.57, -12.94 89.26 10/26/2016 12:58:43 76.56, -13.07 89.24 3.56 61
11 10/26/2016 13:50:26 -76.54, 154.31 90.76 10/26/2016 13:49:39 -76.55, 154.24 90.76 1.73 47
12 10/26/2016 14:41:07 76.50, -38.51 89.21 10/26/2016 14:40:44 76.52, -38.42 89.23 3.08 23
13 10/26/2016 15:31:48 -76.52, 128.90
